FW0202 Weather Reports


Display with metric or nautical units.
time (UTC)temp
F
wind
direction
speed
MPH
gust
MPH
rain 1hr
in
rain 24hr
in
rain mn
in
humidity
%
barometer
mb
20260905021037 86 180 5.0 7.0 0.00 0.00 0.00 36 997.4
20260905020537 86 193 4.0 6.0 0.00 0.00 0.00 40 997.5
20260905020037 86 195 4.0 6.0 0.00 0.00 0.00 35 997.6
20260905015535 86 176 5.0 6.0 0.00 0.00 0.00 40 997.5
20260905015030 84 199 4.0 6.0 0.00 0.00 0.00 41 997.9
20260905014526 85 187 4.0 5.0 0.00 0.00 0.00 39 997.9
20260905014244 85 211 3.0 6.0 0.00 0.00 0.00 39 998.0
20260905013518 84 186 3.0 6.0 0.00 0.00 0.00 44 998.1
20260905013013 84 177 4.0 6.0 0.00 0.00 0.00 43 998.2
20260905012459 84 175 5.0 5.0 0.00 0.00 0.00 45 998.2
20260905011955 84 197 3.0 6.0 0.00 0.00 0.00 44 998.3
20260905011713 84 188 4.0 6.0 0.00 0.00 0.00 46 998.5
20260905010928 85 168 6.0 6.0 0.00 0.00 0.00 45 998.6
20260905010413 84 182 5.0 6.0 0.00 0.00 0.00 43 999.0
20260905005858 83 185 4.0 6.0 0.00 0.00 0.00 50 998.8
20260905005408 83 177 4.0 6.0 0.00 0.00 0.00 51 999.0
20260905004850 82 181 4.0 5.0 0.00 0.00 0.00 52 998.9
20260905004347 82 178 3.0 5.0 0.00 0.00 0.00 49 999.0
20260905003840 81 184 3.0 5.0 0.00 0.00 0.00 49 999.3
20260905003338 80 182 4.0 5.0 0.00 0.00 0.00 51 999.2
20260905002824 80 175 4.0 5.0 0.00 0.00 0.00 51 999.3
20260905002319 78 185 3.0 6.0 0.00 0.00 0.00 56 999.4
20260905001813 79 180 3.0 6.0 0.00 0.00 0.00 55 999.3
20260905001535 80 198 3.0 5.0 0.00 0.00 0.00 55 999.5
20260905000804 79 180 4.0 5.0 0.00 0.00 0.00 55 999.5
20260905000530 78 177 4.0 5.0 0.00 0.00 0.00 57 999.7
20260904235746 79 178 3.0 4.0 0.00 0.00 0.00 55 999.8
20260904235231 80 193 3.0 5.0 0.00 0.00 0.00 53 999.8
20260904234713 78 180 4.0 5.0 0.00 0.00 0.00 57 999.7
20260904234159 78 205 3.0 5.0 0.00 0.00 0.00 57 999.8
20260904233904 77 193 3.0 5.0 0.00 0.00 0.00 59 999.7
20260904233139 77 178 3.0 5.0 0.00 0.00 0.00 59 1000.0
20260904232635 78 174 4.0 5.0 0.00 0.00 0.00 63 1000.0
20260904232131 76 180 3.0 5.0 0.00 0.00 0.00 63 999.9
20260904231616 75 176 2.0 5.0 0.00 0.00 0.00 65 1000.2
20260904231336 75 187 3.0 5.0 0.00 0.00 0.00 67 1000.1
20260904230609 75 180 4.0 4.0 0.00 0.00 0.00 67 1000.2
20260904230105 73 175 3.0 5.0 0.00 0.00 0.00 68 1000.3
20260904225600 73 191 4.0 5.0 0.00 0.00 0.00 69 1000.2
20260904225056 72 195 3.0 4.0 0.00 0.00 0.00 70 1000.2
20260904224542 73 193 3.0 4.0 0.00 0.00 0.00 68 1000.3
20260904224032 74 210 2.0 4.0 0.00 0.00 0.00 69 1000.3
20260904223532 74 170 2.0 4.0 0.00 0.00 0.00 67 1000.3
20260904223032 73 160 4.0 4.0 0.00 0.00 0.00 70 1000.3
20260904222514 71 186 3.0 5.0 0.00 0.00 0.00 73 1000.4
20260904222000 70 180 4.0 5.0 0.00 0.00 0.00 72 1000.3
20260904221715 70 178 4.0 5.0 0.00 0.00 0.00 75 1000.3
20260904220950 70 166 4.0 6.0 0.00 0.00 0.00 73 1000.5
20260904220447 70 168 4.0 6.0 0.00 0.00 0.00 72 1000.5
20260904215930 69 172 4.0 6.0 0.00 0.00 0.00 74 1000.4
20260904215430 70 173 4.0 5.0 0.00 0.00 0.00 72 1000.6
20260904214913 68 171 4.0 4.0 0.00 0.00 0.00 74 1000.4
20260904214400 67 183 3.0 5.0 0.00 0.00 0.00 75 1000.2
20260904214104 65 180 4.0 5.0 0.00 0.00 0.00 78 1000.3
20260904213340 63 173 4.0 5.0 0.00 0.00 0.00 84 1000.4
20260904212830 61 186 3.0 4.0 0.00 0.00 0.00 88 1000.2
20260904212330 60 172 3.0 4.0 0.00 0.00 0.00 90 1000.4
20260904211829 58 182 3.0 4.0 0.00 0.00 0.00 94 1000.3
20260904211313 58 180 3.0 4.0 0.00 0.00 0.00 96 1000.2
20260904210749 57 184 3.0 5.0 0.00 0.00 0.00 96 1000.2
20260904210244 57 176 4.0 5.0 0.00 0.00 0.00 97 1000.2
20260904205730 58 180 3.0 4.0 0.00 0.00 0.00 97 1000.2
20260904205441 58 177 3.0 4.0 0.00 0.00 0.00 97 1000.2
20260904204711 57 188 3.0 5.0 0.00 0.00 0.00 97 1000.1
20260904204156 57 177 3.0 5.0 0.00 0.00 0.00 97 1000.1
20260904203647 57 182 3.0 5.0 0.00 0.00 0.00 97 1000.2
20260904203141 56 177 3.0 5.0 0.00 0.00 0.00 97 1000.1
20260904202637 56 180 4.0 5.0 0.00 0.00 0.00 97 1000.2
20260904202123 56 180 4.0 5.0 0.00 0.00 0.00 97 1000.1
20260904201619 55 176 4.0 5.0 0.00 0.00 0.00 97 1000.0
20260904201115 55 175 4.0 5.0 0.00 0.00 0.00 97 999.9
20260904200612 55 178 4.0 5.0 0.00 0.00 0.00 97 1000.1
20260904200105 55 184 4.0 5.0 0.00 0.00 0.00 97 999.9
20260904195550 55 177 4.0 5.0 0.00 0.00 0.00 97 1000.0
20260904195306 55 177 4.0 5.0 0.00 0.00 0.00 97 1000.1
20260904194543 55 175 4.0 5.0 0.00 0.00 0.00 97 999.9
20260904194028 55 180 4.0 5.0 0.00 0.00 0.00 97 1000.1
20260904193733 56 182 4.0 5.0 0.00 0.00 0.00 97 1000.1
20260904192959 56 176 4.0 5.0 0.00 0.00 0.00 97 1000.0
20260904192454 56 178 4.0 5.0 0.00 0.00 0.00 97 999.9
20260904191951 56 176 4.0 5.0 0.00 0.00 0.00 97 999.9
20260904191437 56 178 4.0 5.0 0.00 0.00 0.00 97 1000.0
20260904190932 56 177 4.0 5.0 0.00 0.00 0.00 97 1000.0
20260904190428 57 177 4.0 5.0 0.00 0.00 0.00 97 999.9
20260904185925 57 173 4.0 5.0 0.00 0.00 0.00 97 999.7
20260904185420 57 178 4.0 5.0 0.00 0.00 0.00 97 999.7
20260904185135 56 180 4.0 5.0 0.00 0.00 0.00 96 999.7
20260904184410 56 177 4.0 5.0 0.00 0.00 0.00 96 999.7
20260904183855 56 176 4.0 5.0 0.00 0.00 0.00 96 999.7
20260904183352 56 180 4.0 5.0 0.00 0.00 0.00 96 999.5
20260904182838 57 182 4.0 5.0 0.00 0.00 0.00 96 999.7
20260904182325 57 175 4.0 5.0 0.00 0.00 0.00 96 999.6
20260904181824 58 173 4.0 5.0 0.00 0.00 0.00 96 999.6
20260904181314 58 176 4.0 5.0 0.00 0.00 0.00 96 999.7
20260904180810 58 175 4.0 5.0 0.00 0.00 0.00 96 999.5
20260904180254 58 173 4.0 6.0 0.00 0.00 0.00 96 999.6
20260904175751 58 175 4.0 6.0 0.00 0.00 0.00 95 999.5
20260904175237 58 179 4.0 5.0 0.00 0.00 0.00 95 999.5
20260904174943 58 180 3.0 5.0 0.00 0.00 0.00 95 999.5
20260904174209 59 180 4.0 5.0 0.00 0.00 0.00 94 999.6
20260904173912 59 178 3.0 5.0 0.00 0.00 0.00 94 999.4
20260904173146 59 178 4.0 5.0 0.00 0.00 0.00 94 999.5
20260904172910 59 178 4.0 5.0 0.00 0.00 0.00 94 999.6
20260904172127 60 180 4.0 5.0 0.00 0.00 0.00 94 999.7
20260904171613 60 175 4.0 5.0 0.00 0.00 0.00 94 999.5
20260904171107 60 180 4.0 5.0 0.00 0.00 0.00 94 999.7
20260904170606 60 179 4.0 5.0 0.00 0.00 0.00 94 999.8
20260904170059 60 175 4.0 5.0 0.00 0.00 0.00 94 999.8
20260904165542 60 168 4.0 5.0 0.00 0.00 0.00 93 999.8
20260904165037 59 175 4.0 5.0 0.00 0.00 0.00 93 1000.1
20260904164533 59 180 3.0 5.0 0.00 0.00 0.00 93 999.8
20260904164030 59 176 4.0 5.0 0.00 0.00 0.00 93 999.9
20260904163521 59 180 4.0 5.0 0.00 0.00 0.00 93 1000.0
20260904163012 59 173 4.0 5.0 0.00 0.00 0.00 93 1000.1
20260904162447 59 176 4.0 5.0 0.00 0.00 0.00 93 1000.1
20260904161943 59 174 4.0 5.0 0.00 0.00 0.00 93 1000.1
20260904161439 59 180 3.0 5.0 0.00 0.00 0.00 94 1000.1
20260904160935 59 176 4.0 5.0 0.00 0.00 0.00 94 1000.2
20260904160429 59 168 4.0 5.0 0.00 0.00 0.00 94 1000.2
20260904155921 59 177 4.0 5.0 0.00 0.00 0.00 94 1000.3
20260904155411 59 178 3.0 5.0 0.00 0.00 0.00 94 1000.4
20260904154907 59 174 4.0 5.0 0.00 0.00 0.00 94 1000.2
20260904154350 59 184 4.0 5.0 0.00 0.00 0.00 94 1000.5
20260904153848 59 179 4.0 4.0 0.00 0.00 0.00 94 1000.5
20260904153344 59 183 3.0 4.0 0.00 0.00 0.00 93 1000.3
20260904152840 59 176 4.0 4.0 0.00 0.00 0.00 93 1000.5
20260904152326 60 181 3.0 5.0 0.00 0.00 0.00 92 1000.5
20260904151835 60 180 4.0 5.0 0.00 0.00 0.00 92 1000.4
20260904151330 60 174 4.0 5.0 0.00 0.00 0.00 91 1000.5
20260904150813 60 172 4.0 5.0 0.00 0.00 0.00 91 1000.7
20260904150309 60 172 4.0 5.0 0.00 0.00 0.00 91 1000.5
20260904145755 60 181 4.0 5.0 0.00 0.00 0.00 91 1000.5
20260904145251 60 173 4.0 5.0 0.00 0.00 0.00 91 1000.4
20260904144747 60 180 4.0 5.0 0.00 0.00 0.00 92 1000.5
20260904144503 60 173 4.0 5.0 0.00 0.00 0.00 92 1000.5
20260904143738 60 181 4.0 5.0 0.00 0.00 0.00 93 1000.5
20260904143214 60 180 3.0 6.0 0.00 0.00 0.00 93 1000.7
20260904142710 60 168 5.0 6.0 0.00 0.00 0.00 94 1000.6
20260904142206 60 173 5.0 6.0 0.00 0.00 0.00 94 1000.6
20260904141654 60 179 4.0 5.0 0.00 0.00 0.00 94 1000.6
20260904141127 60 177 5.0 5.0 0.00 0.00 0.00 95 1000.5
20260904140622 60 179 4.0 5.0 0.00 0.00 0.00 95 1000.7
20260904140119 59 176 4.0 5.0 0.00 0.00 0.00 95 1000.6
20260904135838 60 177 5.0 5.0 0.00 0.00 0.00 95 1000.8
20260904135111 59 174 4.0 5.0 0.00 0.00 0.00 95 1000.7
20260904134606 59 175 4.0 5.0 0.00 0.00 0.00 95 1000.6
20260904134113 59 173 4.0 5.0 0.00 0.00 0.00 95 1000.6
20260904133548 59 180 3.0 5.0 0.00 0.00 0.00 95 1000.6
20260904133303 59 174 4.0 5.0 0.00 0.00 0.00 95 1000.6
20260904132529 59 181 4.0 5.0 0.00 0.00 0.00 95 1000.8
20260904132038 59 180 3.0 5.0 0.00 0.00 0.00 95 1000.4
20260904131516 59 168 5.0 5.0 0.00 0.00 0.00 95 1000.7
20260904131017 59 178 4.0 4.0 0.00 0.00 0.00 94 1000.7
20260904130512 59 186 3.0 5.0 0.00 0.00 0.00 94 1000.6
20260904130009 59 180 4.0 5.0 0.00 0.00 0.00 93 1000.7
20260904125719 59 174 4.0 5.0 0.00 0.00 0.00 93 1000.6
20260904125202 59 176 4.0 5.0 0.00 0.00 0.00 93 1000.5
20260904124415 59 180 4.0 5.0 0.00 0.00 0.00 93 1000.4
20260904123913 59 176 5.0 5.0 0.00 0.00 0.00 93 1000.5
20260904123621 60 175 5.0 5.0 0.00 0.00 0.00 93 1000.6
20260904122850 60 174 4.0 5.0 0.00 0.00 0.00 93 1000.5
20260904122344 60 176 5.0 5.0 0.00 0.00 0.00 93 1000.6
20260904122108 60 178 4.0 5.0 0.00 0.00 0.00 93 1000.6
20260904121337 60 181 4.0 5.0 0.00 0.00 0.00 94 1000.6
20260904120813 60 175 5.0 5.0 0.00 0.00 0.00 94 1000.8
20260904120529 60 178 4.0 5.0 0.00 0.00 0.00 94 1000.8
20260904115745 61 180 4.0 5.0 0.00 0.00 0.00 94 1000.6
20260904115504 61 178 4.0 5.0 0.00 0.00 0.00 95 1000.8
20260904114743 61 182 3.0 5.0 0.00 0.00 0.00 95 1000.6
20260904114242 61 177 4.0 5.0 0.00 0.00 0.00 95 1000.6
20260904113713 61 185 4.0 4.0 0.00 0.00 0.00 95 1000.7
20260904113358 61 179 3.0 5.0 0.00 0.00 0.00 95 1000.7
20260904112143 61 183 3.0 5.0 0.00 0.00 0.00 95 1000.4
20260904111643 61 180 3.0 5.0 0.00 0.00 0.00 95 1000.6
20260904111137 61 178 3.0 5.0 0.00 0.00 0.00 94 1000.6
20260904110612 61 177 3.0 5.0 0.00 0.00 0.00 94 1000.5
20260904110113 61 183 4.0 5.0 0.00 0.00 0.00 94 1000.7
20260904105612 62 177 4.0 5.0 0.00 0.00 0.00 94 1000.4
20260904105330 62 179 4.0 5.0 0.00 0.00 0.00 93 1000.6
20260904104544 61 183 4.0 5.0 0.00 0.00 0.00 93 1000.5
20260904104306 61 175 4.0 5.0 0.00 0.00 0.00 92 1000.5
20260904103536 61 176 4.0 5.0 0.00 0.00 0.00 92 1000.4
20260904103012 61 178 4.0 5.0 0.00 0.00 0.00 92 1000.1
20260904102459 62 178 4.0 5.0 0.00 0.00 0.00 92 1000.5
20260904102214 62 172 3.0 5.0 0.00 0.00 0.00 92 1000.2
20260904101449 62 167 5.0 5.0 0.00 0.00 0.00 92 1000.1
20260904100940 62 167 5.0 5.0 0.00 0.00 0.00 92 1000.1
20260904100421 63 175 4.0 5.0 0.00 0.00 0.00 92 999.9
20260904095917 63 175 3.0 5.0 0.00 0.00 0.00 92 1000.0
20260904095412 63 178 3.0 5.0 0.00 0.00 0.00 92 999.9
20260904094908 63 180 4.0 5.0 0.00 0.00 0.00 92 999.8
20260904094344 63 176 4.0 5.0 0.00 0.00 0.00 91 999.7
20260904093830 63 179 3.0 5.0 0.00 0.00 0.00 91 999.7
20260904093604 63 177 4.0 5.0 0.00 0.00 0.00 90 999.5
20260904092811 64 180 4.0 5.0 0.00 0.00 0.00 90 999.4
20260904092534 64 182 4.0 5.0 0.00 0.00 0.00 90 999.5
20260904092011 64 180 4.0 5.0 0.00 0.00 0.00 90 999.4
20260904091300 64 175 4.0 5.0 0.00 0.00 0.00 90 999.5
20260904090744 64 179 4.0 5.0 0.00 0.00 0.00 89 999.3
20260904090504 65 179 4.0 5.0 0.00 0.00 0.00 89 999.2
20260904085726 65 179 4.0 5.0 0.00 0.00 0.00 89 999.2
20260904085222 65 175 3.0 5.0 0.00 0.00 0.00 89 998.9
20260904085204 65 179 4.0 5.0 0.00 0.00 0.00 88 999.1
20260904084212 65 174 4.0 5.0 0.00 0.00 0.00 88 998.9
20260904083708 65 180 4.0 5.0 0.00 0.00 0.00 87 998.8
20260904083205 65 178 3.0 5.0 0.00 0.00 0.00 86 998.7
20260904082647 66 171 4.0 5.0 0.00 0.00 0.00 86 998.7
20260904082112 66 173 3.0 5.0 0.00 0.00 0.00 85 998.8
20260904081608 66 169 4.0 5.0 0.00 0.00 0.00 84 998.7
20260904081053 66 165 5.0 5.0 0.00 0.00 0.00 84 998.6
20260904080549 66 183 4.0 5.0 0.00 0.00 0.00 83 998.4
20260904080058 67 169 3.0 5.0 0.00 0.00 0.00 82 998.5
20260904080016 67 175 2.0 5.0 0.00 0.00 0.00 82 998.5
20260904075015 67 180 3.0 5.0 0.00 0.00 0.00 81 998.3
20260904074511 67 188 4.0 5.0 0.00 0.00 0.00 80 998.3
20260904074005 68 176 3.0 5.0 0.00 0.00 0.00 80 998.2
20260904073451 68 191 4.0 5.0 0.00 0.00 0.00 79 998.0
20260904072945 68 175 4.0 6.0 0.00 0.00 0.00 79 998.3
20260904072429 69 180 4.0 6.0 0.00 0.00 0.00 78 998.1
20260904072142 69 172 4.0 5.0 0.00 0.00 0.00 77 997.9
20260904071414 69 174 3.0 5.0 0.00 0.00 0.00 76 997.8
20260904070909 69 177 4.0 5.0 0.00 0.00 0.00 76 997.8
20260904070404 69 177 3.0 5.0 0.00 0.00 0.00 76 997.7
20260904065900 70 183 3.0 5.0 0.00 0.00 0.00 75 997.8
20260904065356 70 177 4.0 6.0 0.00 0.00 0.00 74 997.7
20260904065113 70 166 4.0 6.0 0.00 0.00 0.00 74 997.7
20260904064351 70 188 2.0 5.0 0.00 0.00 0.00 73 997.6
20260904064037 71 164 3.0 6.0 0.00 0.00 0.00 72 997.5
20260904063310 71 174 4.0 6.0 0.00 0.00 0.00 71 997.5
20260904062755 71 175 4.0 6.0 0.00 0.00 0.00 69 997.5
20260904062251 71 182 4.0 6.0 0.00 0.00 0.00 68 997.5
20260904062004 72 164 3.0 6.0 0.00 0.00 0.00 68 997.4
20260904061242 72 164 3.0 5.0 0.00 0.00 0.00 70 997.4
20260904060936 72 170 3.0 5.0 0.00 0.00 0.00 69 997.4
20260904060213 72 174 5.0 5.0 0.00 0.00 0.00 69 997.5
20260904055708 72 188 3.0 5.0 0.00 0.00 0.00 68 997.4
20260904055205 73 171 3.0 5.0 0.00 0.00 0.00 67 997.2
20260904054659 73 156 4.0 6.0 0.00 0.00 0.00 67 997.2
20260904054156 73 164 2.0 6.0 0.00 0.00 0.00 67 997.3
20260904053641 74 163 6.0 6.0 0.00 0.00 0.00 65 997.3
20260904053133 74 162 4.0 5.0 0.00 0.00 0.00 65 997.2
20260904052633 74 162 4.0 5.0 0.00 0.00 0.00 64 997.1
20260904052134 74 180 3.0 6.0 0.00 0.00 0.00 64 997.0
20260904051633 75 170 4.0 6.0 0.00 0.00 0.00 63 997.0
20260904051130 75 174 3.0 6.0 0.00 0.00 0.00 64 997.0
20260904050625 75 179 3.0 6.0 0.00 0.00 0.00 64 997.1
20260904050121 75 163 4.0 6.0 0.00 0.00 0.00 63 997.2
20260904045615 76 160 5.0 6.0 0.00 0.00 0.00 63 997.0
20260904045112 76 181 5.0 5.0 0.00 0.00 0.00 62 997.0
20260904044547 77 170 4.0 5.0 0.00 0.00 0.00 61 996.9
20260904044044 77 170 4.0 6.0 0.00 0.00 0.00 60 996.9
20260904043751 77 169 4.0 6.0 0.00 0.00 0.00 59 997.1
20260904043014 78 168 4.0 6.0 0.00 0.00 0.00 59 997.0
20260904042510 78 178 4.0 6.0 0.00 0.00 0.00 59 997.0
20260904042224 78 183 4.0 5.0 0.00 0.00 0.00 58 997.2
20260904041721 79 180 4.0 5.0 0.00 0.00 0.00 56 997.1
20260904041445 79 339 2.0 5.0 0.00 0.00 0.00 57 997.3
20260904040453 79 358 2.0 4.0 0.00 0.00 0.00 56 997.5
20260904035949 80 20 2.0 5.0 0.00 0.00 0.00 55 997.4
20260904035445 80 16 2.0 5.0 0.00 0.00 0.00 57 997.4
20260904034941 79 15 3.0 5.0 0.00 0.00 0.00 57 997.4
20260904034431 80 23 2.0 5.0 0.00 0.00 0.00 57 997.4
20260904033911 80 19 2.0 4.0 0.00 0.00 0.00 56 997.6
20260904033624 80 25 0.0 5.0 0.00 0.00 0.00 56 997.7
20260904033122 81 23 1.0 5.0 0.00 0.00 0.00 55 997.7
20260904032347 81 0 2.0 4.0 0.00 0.00 0.00 55 997.7
20260904032050 81 25 2.0 4.0 0.00 0.00 0.00 54 997.8
20260904031330 81 349 2.0 4.0 0.00 0.00 0.00 54 998.0
20260904030830 82 8 2.0 4.0 0.00 0.00 0.00 54 998.0
20260904030808 82 359 1.0 5.0 0.00 0.00 0.00 49 998.2
20260904025826 83 351 2.0 5.0 0.00 0.00 0.00 49 998.2
20260904025323 81 349 2.0 5.0 0.00 0.00 0.00 49 998.3
20260904024818 81 19 1.0 4.0 0.00 0.00 0.00 49 998.4
20260904024315 83 4 2.0 4.0 0.00 0.00 0.00 48 998.4
20260904023810 83 22 1.0 4.0 0.00 0.00 0.00 49 998.4
20260904023305 82 346 2.0 4.0 0.00 0.00 0.00 49 998.6
20260904022751 82 6 0.0 4.0 0.00 0.00 0.00 50 998.7
20260904022247 82 13 2.0 4.0 0.00 0.00 0.00 49 998.9
20260904021733 82 351 3.0 5.0 0.00 0.00 0.00 53 998.8
20260904021228 82 0 2.0 5.0 0.00 0.00 0.00 50 998.9